Oscoda, MI

9:23 AM EDT on May 30, 2017 (GMT -0400)
Oscoda-Wurtsmith

Weather History for KOSC - October, 2012

Change the Weather History Date:

Wednesday, October 24, 2012

  Actual Average Record
Temperature  
Mean Temperature 58 °F -  
Max Temperature 63 °F 51 °F 71 °F (1998)
Min Temperature 52 °F 36 °F 26 °F (2002)
Degree Days  
Heating Degree Days 8    
Growing Degree Days 8 (Base 50)    
Moisture  
Dew Point 54 °F    
Average Humidity 96    
Maximum Humidity 99    
Minimum Humidity 88    
Precipitation  
Precipitation 0.05 in - - ()
Sea Level Pressure  
Sea Level Pressure 29.99 in    
Wind  
Wind Speed 5 mph (ESE)    
Max Wind Speed 10 mph    
Max Gust Speed -    
Visibility 2 miles    
Events Fog , Rain    
Averages and records for this station are not official NWS values.
T = Trace of Precipitation, MM = Missing Value Source: NWS Daily Summary

Daily Weather History Graph

Daily Weather History Graph

Search for Another Location

Airport or City:

Trip Planner

Search our weather history database for the weather conditions in past years. The results will help you decide how hot, cold, wet, or windy it might be!

Date:

Astronomy

Oct. 24, 2012 Rise Set
Actual Time 8:00 AM EDT 6:33 PM EDT
Civil Twilight 7:31 AM EDT 7:03 PM EDT
Nautical Twilight 6:57 AM EDT 7:37 PM EDT
Astronomical Twilight 6:23 AM EDT 8:11 PM EDT
Moon 3:58 PM EDT (10/24) 2:43 AM EDT (10/24)
Length of Visible Light 11h 32m
Length of Day
10h 32m
Waxing Gibbous, 76% of the Moon is Illuminated
Oct 24
Waxing Gibbous
Oct 29
Full
Nov 6
Last Quarter
Nov 13
New
Nov 20
First Quarter

Hourly Weather History & Observations

Time (EDT) Temp. Dew Point Humidity Pressure Visibility Wind Dir Wind Speed Gust Speed Precip Events Conditions
12:13 AM 52.7 °F 51.8 °F 97% 30.02 in 5.0 mi ESE 10.4 mph - N/A   Overcast
12:33 AM 52.7 °F 51.8 °F 97% 30.03 in 5.0 mi ESE 6.9 mph - N/A   Overcast
12:53 AM 52.7 °F 51.6 °F 96% 30.03 in 5.0 mi ESE 5.8 mph - N/A   Overcast
1:13 AM 52.7 °F 51.4 °F 95% 30.03 in 5.0 mi ESE 6.9 mph - N/A   Overcast
1:33 AM 52.7 °F 51.4 °F 95% 30.03 in 5.0 mi ESE 9.2 mph - N/A   Overcast
1:53 AM 52.3 °F 51.4 °F 97% 30.02 in 3.0 mi ESE 5.8 mph - N/A Rain Light Rain
2:13 AM 52.3 °F 51.8 °F 98% 30.03 in 2.0 mi ESE 5.8 mph - N/A   Light Drizzle
2:33 AM 52.3 °F 51.8 °F 98% 30.02 in 1.8 mi East 3.5 mph - N/A   Overcast
2:53 AM 52.3 °F 51.8 °F 98% 30.02 in 1.5 mi East 4.6 mph - N/A   Overcast
3:13 AM 52.3 °F 51.8 °F 98% 30.02 in 1.2 mi ESE 4.6 mph - N/A   Overcast
3:33 AM 52.5 °F 51.8 °F 97% 30.01 in 1.5 mi East 5.8 mph - N/A   Overcast
3:53 AM 52.3 °F 51.8 °F 98% 30.01 in 1.5 mi East 6.9 mph - N/A   Overcast
4:12 AM 52.3 °F 51.8 °F 98% 30.01 in 1.5 mi ESE 8.1 mph - N/A   Overcast
4:33 AM 52.3 °F 51.8 °F 98% 30.01 in 1.2 mi East 4.6 mph - N/A   Drizzle
4:53 AM 52.3 °F 51.8 °F 98% 30.01 in 1.2 mi East 3.5 mph - N/A   Drizzle
5:13 AM 52.5 °F 52.0 °F 98% 30.01 in 1.2 mi East 3.5 mph - N/A   Light Drizzle
5:33 AM 52.7 °F 52.2 °F 98% 30.01 in 1.2 mi East 4.6 mph - N/A   Drizzle
5:53 AM 52.7 °F 52.2 °F 98% 30.01 in 1.2 mi East 3.5 mph - N/A   Light Drizzle
6:12 AM 52.9 °F 52.3 °F 98% 30.01 in 1.8 mi East 4.6 mph - N/A   Drizzle
6:33 AM 52.9 °F 52.3 °F 98% 30.01 in 2.5 mi East 6.9 mph - 0.01 in Rain Light Rain
6:53 AM 52.9 °F 52.3 °F 98% 30.00 in 2.5 mi ESE 9.2 mph - 0.05 in Rain Light Rain
7:12 AM 53.1 °F 52.5 °F 98% 30.01 in 2.5 mi SE 6.9 mph - N/A   Light Drizzle
7:33 AM 53.1 °F 52.7 °F 99% 30.01 in 2.5 mi SE 4.6 mph - N/A   Overcast
7:53 AM 53.1 °F 52.7 °F 99% 30.01 in 2.5 mi SE 3.5 mph - N/A   Overcast
8:13 AM 53.1 °F 52.7 °F 99% 30.01 in 2.0 mi Calm Calm - N/A   Overcast
8:33 AM 53.2 °F 52.7 °F 98% 30.01 in 1.2 mi Calm Calm - N/A   Overcast
8:53 AM 53.2 °F 52.7 °F 98% 30.02 in 1.2 mi Calm Calm - N/A   Overcast
9:12 AM 53.6 °F 52.9 °F 97% 30.02 in 0.8 mi Calm Calm - N/A   Overcast
9:33 AM 53.6 °F 53.1 °F 98% 30.01 in 0.5 mi Calm Calm - N/A Fog Fog
9:53 AM 54.0 °F 53.6 °F 99% 30.01 in 0.5 mi Calm Calm - N/A Fog Fog
10:13 AM 54.5 °F 53.8 °F 97% 30.01 in 0.5 mi Calm Calm - N/A Fog Fog
10:33 AM 54.7 °F 54.1 °F 98% 30.00 in 0.8 mi Calm Calm - N/A   Overcast
10:53 AM 55.6 °F 55.2 °F 99% 30.00 in 0.8 mi South 3.5 mph - N/A   Overcast
11:13 AM 56.5 °F 55.9 °F 98% 29.99 in 1.5 mi Calm Calm - N/A   Overcast
11:33 AM 57.6 °F 57.0 °F 98% 29.99 in 2.0 mi South 3.5 mph - N/A   Overcast
11:53 AM 58.6 °F 58.1 °F 98% 30.00 in 2.0 mi SSW 3.5 mph - N/A   Overcast
12:13 PM 59.0 °F 58.1 °F 97% 30.01 in 2.5 mi SW 4.6 mph - N/A   Overcast
12:33 PM 59.4 °F 58.3 °F 96% 30.00 in 2.5 mi Calm Calm - N/A   Overcast
12:53 PM 60.1 °F 59.0 °F 96% 30.00 in 2.5 mi SW 3.5 mph - N/A   Overcast
1:13 PM 60.8 °F 59.2 °F 94% 29.99 in 3.0 mi Calm Calm - N/A   Overcast
1:33 PM 61.0 °F 59.0 °F 93% 29.98 in 3.0 mi Calm Calm - N/A   Overcast
1:53 PM 63.0 °F 59.9 °F 90% 29.97 in 4.0 mi NE 3.5 mph - N/A   Overcast
2:13 PM 62.6 °F 59.5 °F 90% 29.97 in 4.0 mi ENE 3.5 mph - N/A   Overcast
2:33 PM 61.9 °F 58.3 °F 88% 29.98 in 4.0 mi East 4.6 mph - N/A   Overcast
2:53 PM 60.4 °F 58.1 °F 92% 29.97 in 3.0 mi East 5.8 mph - N/A   Overcast
3:13 PM 58.5 °F 56.8 °F 94% 29.97 in 1.8 mi East 6.9 mph - N/A   Overcast
3:33 PM 57.2 °F 56.1 °F 96% 29.97 in 0.2 mi East 4.6 mph - N/A Fog Fog
3:52 PM 56.7 °F 55.8 °F 97% 29.97 in 0.2 mi East 4.6 mph - N/A Fog Fog
4:13 PM 56.7 °F 55.9 °F 97% 29.96 in 0.2 mi East 5.8 mph - N/A Fog Fog
4:33 PM 56.5 °F 55.8 °F 97% 29.96 in 0.2 mi ESE 4.6 mph - N/A Fog Fog
4:52 PM 55.9 °F 55.4 °F 98% 29.96 in 0.2 mi ESE 3.5 mph - N/A Fog Fog
5:13 PM 55.6 °F 55.0 °F 98% 29.96 in 0.2 mi ESE 4.6 mph - N/A Fog Fog
5:33 PM 55.8 °F 55.2 °F 98% 29.97 in 2.5 mi ESE 3.5 mph - N/A   Overcast
5:52 PM 56.3 °F 55.4 °F 97% 29.97 in 4.0 mi SE 5.8 mph - N/A   Overcast
6:13 PM 56.5 °F 55.4 °F 96% 29.97 in 3.0 mi Calm Calm - N/A   Overcast
6:33 PM 56.8 °F 55.6 °F 96% 29.96 in 3.0 mi ESE 4.6 mph - N/A   Overcast
6:52 PM 57.2 °F 55.4 °F 94% 29.97 in 4.0 mi Calm Calm - N/A   Overcast
7:13 PM 57.2 °F 55.4 °F 94% 29.97 in 4.0 mi ESE 4.6 mph - N/A   Overcast
7:33 PM 56.7 °F 55.0 °F 94% 29.97 in 4.0 mi ESE 4.6 mph - N/A   Overcast
7:52 PM 56.8 °F 55.4 °F 95% 29.97 in 4.0 mi ESE 5.8 mph - N/A   Overcast
8:13 PM 57.0 °F 55.2 °F 94% 29.97 in 4.0 mi ESE 4.6 mph - N/A   Overcast
8:33 PM 58.1 °F 55.9 °F 93% 29.97 in 4.0 mi SE 8.1 mph - N/A   Overcast
8:52 PM 57.7 °F 55.8 °F 93% 29.97 in 4.0 mi SE 9.2 mph - N/A   Overcast
9:13 PM 57.4 °F 55.6 °F 94% 29.96 in 4.0 mi SE 9.2 mph - N/A   Overcast
9:33 PM 57.2 °F 55.4 °F 94% 29.96 in 4.0 mi ESE 8.1 mph - N/A   Overcast
9:52 PM 56.5 °F 55.0 °F 95% 29.96 in 3.0 mi ESE 8.1 mph - N/A   Overcast
10:13 PM 56.3 °F 54.9 °F 95% 29.95 in 3.0 mi SE 3.5 mph - N/A   Overcast
10:33 PM 56.1 °F 54.7 °F 95% 29.95 in 3.0 mi SE 4.6 mph - N/A   Overcast
10:53 PM 55.9 °F 54.7 °F 96% 29.94 in 2.5 mi Calm Calm - N/A   Mostly Cloudy
11:13 PM 55.6 °F 54.5 °F 96% 29.94 in 2.5 mi Calm Calm - N/A   Scattered Clouds
11:33 PM 55.4 °F 54.5 °F 97% 29.93 in 2.5 mi Calm Calm - N/A   Clear
11:53 PM 53.1 °F 52.3 °F 97% 29.93 in 1.0 mi Calm Calm - N/A   Mist